This is the latest recevied weather packets stored in our database for station/object WA0LM. If no packets are shown the sender has not sent any weather packets the latest 10 day(s).
| Time | Temp. | Humidity | Pressure | Rain* | Wind** | Luminosity | Snow |
|---|---|---|---|---|---|---|---|
| 1777901838 | 10.56° C | 67% | 996.2 hPa | 0 mm | - | 183 W/m² | - |
| 1777901535 | 10.56° C | 67% | 996 hPa | 0 mm | - | 133 W/m² | - |
| 1777901233 | 10.56° C | 65% | 996.2 hPa | 0 mm | - | 125 W/m² | - |
| 1777900930 | 10.56° C | 69% | 996.1 hPa | 0 mm | - | 114 W/m² | - |
| 1777900627 | 10.56° C | 67% | 996.1 hPa | 0 mm | - | 109 W/m² | - |
| 1777900324 | 10.56° C | 68% | 995.9 hPa | 0 mm | - | 86 W/m² | - |
| 1777900021 | 10.56° C | 66% | 996 hPa | 0 mm | - | 84 W/m² | - |
| 1777899717 | 10.56° C | 68% | 995.9 hPa | 0 mm | - | 123 W/m² | - |
| 1777899415 | 10.56° C | 65% | 995.9 hPa | 0 mm | - | 120 W/m² | - |
| 1777899113 | 10.56° C | 65% | 995.6 hPa | 0 mm | - | 77 W/m² | - |
| 1777898809 | 10.56° C | 64% | 995.7 hPa | 0 mm | - | 101 W/m² | - |
| 1777898507 | 10.56° C | 64% | 995.7 hPa | 0 mm | - | 82 W/m² | - |
| 1777898204 | 10.56° C | 66% | 995.6 hPa | 0 mm | - | 70 W/m² | - |
| 1777897902 | 10.56° C | 65% | 995.6 hPa | 0 mm | - | 64 W/m² | - |
| 1777897597 | 10.56° C | 65% | 995.3 hPa | 0 mm | - | 63 W/m² | - |
| 1777897293 | 10.56° C | 63% | 995.2 hPa | 0 mm | - | 63 W/m² | - |
| 1777896989 | 10.56° C | 64% | 995.1 hPa | 0 mm | - | 62 W/m² | - |
| 1777896687 | 10.56° C | 65% | 995.1 hPa | 0 mm | - | 59 W/m² | - |
| 1777896383 | 10.56° C | 65% | 995.2 hPa | 0 mm | - | 48 W/m² | - |
| 1777896081 | 10.56° C | 63% | 994.9 hPa | 0 mm | - | 40 W/m² | - |
| 1777895779 | 10.56° C | 63% | 994.9 hPa | 0 mm | - | 35 W/m² | - |
| 1777895476 | 10.56° C | 63% | 995 hPa | 0 mm | - | 30 W/m² | - |
| 1777895174 | 10.56° C | 67% | 995 hPa | 0 mm | - | 25 W/m² | - |
| 1777894871 | 10.56° C | 66% | 994.8 hPa | 0 mm | - | 17 W/m² | - |
| 1777894568 | 10.56° C | 67% | 994.6 hPa | 0 mm | - | 15 W/m² | - |
* Rain latest hour (hover to see other rain measurements)
** Current wind speed in m/s (hover to see current wind gust speed)